Weather History for Fort Lewis, WA

Change the Weather History Date:

Saturday, October 19, 2013

  Actual Average Record
Temperature  
Mean Temperature 42 °F -  
Max Temperature 48 °F 57 °F 73 °F (2014)
Min Temperature 37 °F 39 °F 31 °F (2008)
Degree Days  
Heating Degree Days 22    
Moisture  
Dew Point 44 °F    
Average Humidity 100    
Maximum Humidity 100    
Minimum Humidity 93    
Precipitation  
Precipitation 0.00 in - - ()
Sea Level Pressure  
Sea Level Pressure 30.17 in    
Wind  
Wind Speed 3 mph (ENE)    
Max Wind Speed 6 mph    
Max Gust Speed -    
Visibility 1 miles    
Events Fog    
Averages and records for this station are not official NWS values.
T = Trace of Precipitation, MM = Missing Value Source: NWS Daily Summary

Daily Weather History Graph

Daily Weather History Graph

Search for Another Location

Airport:

Trip Planner

Search our weather history database for the weather conditions in past years. The results will help you decide how hot, cold, wet, or windy it might be!

Date:

Astronomy

Oct. 19, 2013 Rise Set
Actual Time 7:34 AM PDT 6:14 PM PDT
Civil Twilight 7:03 AM PDT 6:45 PM PDT
Nautical Twilight 6:28 AM PDT 7:21 PM PDT
Astronomical Twilight 5:52 AM PDT 7:56 PM PDT
Moon 6:41 PM PDT (10/19) 8:22 AM PDT (10/19)
Length of Visible Light 11h 42m
Length of Day
10h 40m
Full, 99% of the Moon is Illuminated
Oct 19
Full
Oct 26
Last Quarter
Nov 3
New
Nov 9
First Quarter
Nov 17
Full

Hourly Weather History & Observations

Time (PDT) Temp. Windchill Dew Point Humidity Pressure Visibility Wind Dir Wind Speed Gust Speed Precip Events Conditions
12:03 AM 37.4 °F 34.9 °F 37.4 °F 100% 30.15 in 2.0 mi SE 3.5 mph - N/A   Mostly Cloudy
12:08 AM 37.4 °F 34.9 °F 37.4 °F 100% 30.15 in 0.5 mi SSE 3.5 mph - N/A Fog Fog
12:13 AM 37.4 °F 33.8 °F 37.4 °F 100% 30.15 in 0.5 mi SSE 4.6 mph - N/A Fog Fog
12:18 AM 39.2 °F 37.0 °F 37.4 °F 93% 30.16 in 0.5 mi SE 3.5 mph - N/A Fog Fog
12:23 AM 39.2 °F - 37.4 °F 93% 30.15 in 0.8 mi SE 2.3 mph - N/A   Overcast
12:38 AM 39.2 °F - 39.2 °F 100% 30.15 in 1.2 mi SE 2.3 mph - N/A   Overcast
12:43 AM 39.2 °F - 39.2 °F 100% 30.15 in 1.5 mi SE 1.2 mph - N/A   Overcast
12:48 AM 39.2 °F - 39.2 °F 100% 30.15 in 0.5 mi SE 1.2 mph - N/A Fog Fog
12:53 AM 39.2 °F - 39.2 °F 100% 30.15 in 0.2 mi ESE 1.2 mph - N/A Fog Fog
12:58 AM 39.4 °F - 39.2 °F 99% 30.17 in 0.2 mi Calm Calm - N/A Fog Fog
1:28 AM 39.2 °F - 39.2 °F 100% 30.15 in 0.2 mi SSE 2.3 mph - N/A Fog Fog
1:58 AM 39.7 °F - 39.4 °F 99% 30.17 in 0.2 mi ESE 2.3 mph - N/A Fog Fog
2:58 AM 40.3 °F - 40.1 °F 99% 30.17 in 0.2 mi ESE 2.3 mph - N/A Fog Fog
3:53 AM 41.0 °F - 41.0 °F 100% 30.15 in 0.2 mi Calm Calm - N/A Fog Fog
3:58 AM 41.2 °F - 41.0 °F 99% 30.17 in 0.2 mi Calm Calm - N/A Fog Fog
4:28 AM 41.0 °F 39.0 °F 41.0 °F 100% 30.15 in 0.2 mi East 3.5 mph - N/A Fog Fog
4:33 AM 41.0 °F - 41.0 °F 100% 30.15 in 0.5 mi ESE 2.3 mph - N/A Fog Fog
4:38 AM 41.0 °F - 41.0 °F 100% 30.15 in 0.8 mi East 2.3 mph - N/A   Mist
4:43 AM 41.0 °F - 41.0 °F 100% 30.15 in 1.2 mi East 1.2 mph - N/A   Overcast
4:48 AM 41.0 °F - 41.0 °F 100% 30.15 in 2.0 mi East 1.2 mph - N/A   Overcast
4:53 AM 41.0 °F - 41.0 °F 100% 30.15 in 1.2 mi East 2.3 mph - N/A   Overcast
4:58 AM 40.8 °F - 40.6 °F 99% 30.17 in 1.0 mi East 1.2 mph - N/A   Overcast
5:03 AM 41.0 °F - 41.0 °F 100% 30.15 in 0.8 mi ESE 2.3 mph - N/A   Overcast
5:13 AM 41.0 °F - 41.0 °F 100% 30.15 in 0.5 mi SE 2.3 mph - N/A Fog Fog
5:38 AM 41.0 °F 39.0 °F 41.0 °F 100% 30.15 in 0.8 mi SSE 3.5 mph - N/A   Mist
5:43 AM 41.0 °F - 41.0 °F 100% 30.15 in 0.5 mi SE 2.3 mph - N/A Fog Fog
5:53 AM 41.0 °F - 41.0 °F 100% 30.15 in 0.5 mi SSE 2.3 mph - N/A Fog Fog
5:58 AM 40.5 °F - 40.3 °F 99% 30.17 in 0.5 mi SSE 2.3 mph - N/A Fog Fog
6:58 AM 40.8 °F 38.8 °F 40.6 °F 99% 30.17 in 0.5 mi SSE 3.5 mph - N/A Fog Fog
7:28 AM 41.0 °F - 41.0 °F 100% 30.16 in 0.2 mi Calm Calm - N/A Fog Fog
7:43 AM 41.0 °F 38.0 °F 41.0 °F 100% 30.15 in 0.2 mi SE 4.6 mph - N/A Fog Fog
7:58 AM 41.0 °F 38.0 °F 41.0 °F 100% 30.18 in 0.2 mi SSE 4.6 mph - N/A Fog Fog
8:28 AM 41.0 °F 38.0 °F 41.0 °F 100% 30.16 in 0.2 mi SSE 4.6 mph - N/A Fog Fog
8:33 AM 41.0 °F 39.0 °F 41.0 °F 100% 30.16 in 0.2 mi SE 3.5 mph - N/A Fog Fog
8:48 AM 42.8 °F - 42.8 °F 100% 30.16 in 0.2 mi SE 2.3 mph - N/A Fog Fog
8:53 AM 42.8 °F - 42.8 °F 100% 30.16 in 0.2 mi ESE 2.3 mph - N/A Fog Fog
8:58 AM 42.4 °F - 42.3 °F 99% 30.18 in 0.2 mi Calm Calm - N/A Fog Fog
9:13 AM 42.8 °F 41.1 °F 42.8 °F 100% 30.16 in 0.2 mi ESE 3.5 mph - N/A Fog Fog
9:58 AM 45.3 °F - 45.3 °F 100% 30.19 in 0.2 mi NE 2.3 mph - N/A Fog Fog
10:23 AM 46.4 °F - 46.4 °F 100% 30.17 in 0.2 mi NE 2.3 mph - N/A Fog Fog
10:33 AM 46.4 °F 45.2 °F 46.4 °F 100% 30.18 in 0.5 mi ENE 3.5 mph - N/A Fog Fog
10:48 AM 46.4 °F 45.2 °F 46.4 °F 100% 30.18 in 0.8 mi NNE 3.5 mph - N/A   Overcast
10:53 AM 46.4 °F - 46.4 °F 100% 30.18 in 0.5 mi NNE 2.3 mph - N/A Fog Fog
10:58 AM 46.0 °F - 46.0 °F 100% 30.20 in 0.5 mi NNE 2.3 mph - N/A Fog Fog
11:03 AM 46.4 °F 45.2 °F 46.4 °F 100% 30.18 in 0.8 mi Variable 3.5 mph - N/A   Overcast
11:08 AM 46.4 °F 44.3 °F 46.4 °F 100% 30.18 in 0.8 mi NNE 4.6 mph - N/A   Overcast
11:13 AM 46.4 °F - 46.4 °F 100% 30.18 in 0.8 mi NE 2.3 mph - N/A   Overcast
11:18 AM 46.4 °F - 46.4 °F 100% 30.18 in 1.5 mi NNE 2.3 mph - N/A   Overcast
11:58 AM 46.9 °F - 46.9 °F 100% 30.20 in 0.9 mi NNW 2.3 mph - N/A   Overcast
12:28 PM 46.4 °F - 46.4 °F 100% 30.18 in 1.0 mi Variable 1.2 mph - N/A   Overcast
12:48 PM 48.2 °F - 48.2 °F 100% 30.17 in 1.0 mi North 4.6 mph - N/A   Overcast
12:58 PM 47.5 °F - 47.5 °F 100% 30.19 in 1.0 mi Calm Calm - N/A   Overcast
1:55 PM 48.0 °F - 48.0 °F 100% 30.18 in 1.0 mi Calm Calm - N/A   Overcast
2:58 PM 48.7 °F - 48.7 °F 100% 30.18 in 2.0 mi NE 4.6 mph - N/A   Overcast
3:13 PM 48.2 °F - 48.2 °F 100% 30.16 in 1.0 mi WNW 2.3 mph - N/A   Overcast
3:18 PM 48.2 °F - 48.2 °F 100% 30.16 in 2.0 mi Variable 2.3 mph - N/A   Overcast
3:53 PM 48.2 °F - 48.2 °F 100% 30.16 in 4.0 mi Variable 3.5 mph - N/A   Overcast
3:58 PM 48.6 °F - 48.6 °F 100% 30.18 in 4.0 mi North 2.3 mph - N/A   Overcast
4:43 PM 48.2 °F - 48.2 °F 100% 30.16 in 4.0 mi NNW 3.5 mph - N/A   Overcast
4:58 PM 48.2 °F - 48.2 °F 100% 30.18 in 4.0 mi NNW 2.3 mph - N/A   Overcast
5:03 PM 48.2 °F - 48.2 °F 100% 30.16 in 3.0 mi NNW 2.3 mph - N/A   Overcast
5:43 PM 48.2 °F - 48.2 °F 100% 30.16 in 2.5 mi NW 3.5 mph - N/A   Overcast
5:58 PM 47.7 °F - 47.7 °F 100% 30.18 in 2.5 mi NE 4.6 mph - N/A   Overcast
6:08 PM 48.2 °F - 48.2 °F 100% 30.16 in 2.0 mi NNE 5.8 mph - N/A   Overcast
6:23 PM 46.4 °F 45.2 °F 46.4 °F 100% 30.16 in 3.0 mi North 3.5 mph - N/A   Overcast
6:48 PM 46.4 °F - 46.4 °F 100% 30.17 in 5.0 mi North 2.3 mph - N/A   Overcast
6:58 PM 46.8 °F - 46.8 °F 100% 30.19 in 5.0 mi NE 2.3 mph - N/A   Overcast
7:13 PM 46.4 °F - 46.4 °F 100% 30.17 in 2.5 mi NE 2.3 mph - N/A   Overcast
7:33 PM 46.4 °F - 46.4 °F 100% 30.17 in 2.0 mi NNE 2.3 mph - N/A   Overcast
7:38 PM 46.4 °F - 46.4 °F 100% 30.17 in 1.5 mi NNE 2.3 mph - N/A   Overcast
7:43 PM 46.4 °F - 46.4 °F 100% 30.17 in 1.2 mi NE 1.2 mph - N/A   Overcast
7:58 PM 46.6 °F - 46.6 °F 100% 30.20 in 1.2 mi North 1.2 mph - N/A   Overcast
8:03 PM 46.4 °F 43.5 °F 46.4 °F 100% 30.18 in 1.5 mi NNW 5.8 mph - N/A   Overcast
8:13 PM 46.4 °F 45.2 °F 46.4 °F 100% 30.18 in 1.2 mi NNW 3.5 mph - N/A   Overcast
8:28 PM 46.4 °F - 46.4 °F 100% 30.18 in 1.0 mi ENE 2.3 mph - N/A   Overcast
8:33 PM 46.4 °F 45.2 °F 46.4 °F 100% 30.18 in 0.8 mi ENE 3.5 mph - N/A   Overcast
8:43 PM 46.4 °F 45.2 °F 46.4 °F 100% 30.18 in 1.0 mi ENE 3.5 mph - N/A   Overcast
8:53 PM 46.4 °F 44.3 °F 46.4 °F 100% 30.18 in 0.8 mi NE 4.6 mph - N/A   Overcast
8:58 PM 46.4 °F 44.3 °F 46.4 °F 100% 30.20 in 0.8 mi ENE 4.6 mph - N/A   Overcast
9:03 PM 46.4 °F 44.3 °F 46.4 °F 100% 30.18 in 0.8 mi ENE 4.6 mph - N/A   Overcast
9:23 PM 46.4 °F 43.5 °F 46.4 °F 100% 30.19 in 0.8 mi NE 5.8 mph - N/A   Mist
9:28 PM 46.4 °F 44.3 °F 46.4 °F 100% 30.19 in 1.0 mi ENE 4.6 mph - N/A   Mist
9:38 PM 46.4 °F 44.3 °F 46.4 °F 100% 30.18 in 0.8 mi East 4.6 mph - N/A   Mist
9:43 PM 46.4 °F 44.3 °F 46.4 °F 100% 30.18 in 0.8 mi ENE 4.6 mph - N/A   Overcast
9:48 PM 46.4 °F - 46.4 °F 100% 30.18 in 1.0 mi NE 1.2 mph - N/A   Overcast
9:58 PM 46.0 °F - 46.0 °F 100% 30.21 in 1.5 mi NE 2.3 mph - N/A   Overcast
10:03 PM 46.4 °F 45.2 °F 46.4 °F 100% 30.19 in 1.5 mi NE 3.5 mph - N/A   Overcast
10:08 PM 46.4 °F - 46.4 °F 100% 30.19 in 1.5 mi NNE 2.3 mph - N/A   Overcast
10:18 PM 46.4 °F - 46.4 °F 100% 30.19 in 1.2 mi NNW 2.3 mph - N/A   Overcast
10:23 PM 46.4 °F 45.2 °F 46.4 °F 100% 30.19 in 1.0 mi NNE 3.5 mph - N/A   Overcast
10:43 PM 46.4 °F - 46.4 °F 100% 30.19 in 0.8 mi ENE 1.2 mph - N/A   Overcast
10:58 PM 46.6 °F - 46.6 °F 100% 30.21 in 0.8 mi ENE 3.5 mph - N/A   Overcast
11:13 PM 46.4 °F - 46.4 °F 100% 30.19 in 1.0 mi ENE 2.3 mph - N/A   Overcast
11:33 PM 46.4 °F - 46.4 °F 100% 30.19 in 1.2 mi ENE 1.2 mph - N/A   Overcast
11:43 PM 46.4 °F - 46.4 °F 100% 30.19 in 1.0 mi Variable 2.3 mph - N/A   Overcast
11:48 PM 46.4 °F 45.2 °F 46.4 °F 100% 30.19 in 1.5 mi NNE 3.5 mph - N/A   Overcast
11:53 PM 46.4 °F 45.2 °F 46.4 °F 100% 30.19 in 1.5 mi ENE 3.5 mph - N/A   Overcast
11:58 PM 46.8 °F - 46.8 °F 100% 30.21 in 1.0 mi East 2.3 mph - N/A   Overcast